Regional Weather Roundup
Issued by NWS Green Bay, WI

Home | Current Version | Previous Version | Text Only | Print | Product List | Glossary On
Versions: 1 2 3 4 5 6 7 8 9 10 11 12 13 14 15 16 17 18 19 20 21 22 23 24 25 26 27 28 29 30 31 32 33 34 35 36 37 38 39 40 41 42 43 44 45 46 47 48 49 50
000
ASUS43 KGRB 210600
RWRGRB

NORTH-CENTRAL AND NORTHEAST WISCONSIN REGIONAL WEATHER ROUNDUP
NATIONAL WEATHER SERVICE GREEN BAY WI
1200 AM CST TUE FEB 21 2017

WIZ005-009-010>012-018-019-210700-
NORTH CENTRAL WISCONSIN

CITY           SKY/WX    TMP DP  RH WIND       PRES   REMARKS
IRONWOOD       LGT RAIN  49  48  97 S12G20    29.60F
MANITOWISH WTR NOT AVBL
ARBOR VITAE    NOT AVBL
EAGLE RIVER    NOT AVBL
LAND O LAKES   FOG       46  46 100 S12G18    29.68F VSB 1
RHINELANDER    LGT RAIN  48  48 100 S12       29.70S VSB 1/4
PHILLIPS       DRIZZLE   49  49 100 SW13G21   29.66R
ANTIGO         NOT AVBL
TOMAHAWK       NOT AVBL
MERRILL        NOT AVBL
$$

WIZ013-073-210700-
NORTHEAST WISCONSIN

CITY           SKY/WX    TMP DP  RH WIND       PRES   REMARKS
IRON MOUNTAIN  CLOUDY    43  40  89 S10       29.73F FOG
MARINETTE      LGT RAIN  47  42  83 S18       29.79F
$$

WIZ017-030-035>037-045-210700-
CENTRAL WISCONSIN

CITY           SKY/WX    TMP DP  RH WIND       PRES   REMARKS
MEDFORD        NOT AVBL
WAUSAU         FOG       49  49 100 S12       29.72F VSB 1/4
MOSINEE        DRZL/FOG  50  50 100 S12       29.75F VSB 1/2
MARSHFIELD     CLOUDY    51  50  96 SW12      29.73S FOG
WISC RAPIDS    LGT RAIN  54  54 100 SW9       29.77F FOG
STEVENS POINT  NOT AVBL
WAUPACA        NOT AVBL
SHAWANO        DRIZZLE   51  49  93 S7        29.77F
CLINTONVILLE   CLOUDY    50  48  93 S10       29.77F FOG
WAUTOMA        CLOUDY    54  53  97 S10       29.79F FOG
$$

WIZ038-039-048-051-210700-
FOX VALLEY

CITY           SKY/WX    TMP DP  RH WIND       PRES   REMARKS
NWS GREEN BAY  CLOUDY    48  48 100 S8        29.81F
APPLETON       LGT RAIN  50  50 100 S12       29.79F
OSHKOSH        LGT RAIN  51  50  96 S14       29.81F
FOND DU LAC    LGT RAIN  52  49  89 S8        29.84F FOG
$$

WIZ022-050-052-210700-
EAST CENTRAL WISCONSIN

CITY           SKY/WX    TMP DP  RH WIND       PRES   REMARKS
EPHRAIM        NOT AVBL
WASHINGTON ISL DRIZZLE   40  37  88 S12G21    29.80F
STURGEON BAY   LGT RAIN  46  42  86 S26G36    29.79F
MANITOWOC      NOT AVBL
SHEBOYGAN      CLOUDY    46  40  79 S10       29.86F
$$

LMZ563-521-522-541>543-210700-
LAKESHORE

STATION/POSITION TIME  TEMP    WIND        PRES    VSBY  WAVE
                       AIR SEA DIR/SP/G                  HT/PER
                 (UTC) (F)     (DEG/KT/KT) (MB)    (MI)  (FT/S)
SHEBOYGAN LKSHOR 0500   45     190/ 17/ 19 1012.0F
KEWAUNEE LKSHORE 0530   44     200/ 19/ 26 1011.2R
NORTHPORT PIER   0540   43     160/ 10/ 19 1009.8F
SISTER BAY LKSHO 0450   43     170/ 22/ 29   N/A
CHAMBERS ISLAND  0540   44     170/ 10/ 19 1009.1S
MENOMINEE LKSHOR 0530   42     170/ 16/ 22 1008.5F
$$




USA.gov is the U.S. government's official web portal to all federal, state and local government web resources and services.